ROMMA est une association bénévole à but non lucratif. Votre soutien est indispensable : ADHERER à ROMMA ou FAIRE un DON

Taninges - (74, Haute-Savoie)

Vallée du Giffre (635 m)   Longitude: 06° 35' 38" E   Latitude: 46° 06' 21" N Station romma n°98
 

Détail journalier du     <<     >>

Température Precipitation Humidité Pression Vent Dir Rafale Dir. rafale Ensol.
Heure (°C) (mm) (%) (hPa) (km/h) (km/h) (min)
01:00 4.209610201S5SSE0
02:00 4.0096102005O0
03:00 3.709610201E6ENE0
04:00 3.1096101903SO0
05:00 3.00.296101903E0
06:00 2.809710191E6ONO0
07:00 2.609710201S5ENE0
08:00 2.209710211ONO5NE0
09:00 4.2097102103SO45
10:00 7.70.29810201SO5SO45
11:00 10.409710192OSO6SSE60
12:00 13.608110192SO6SE40
13:00 16.007110192ESE6SE25
14:00 16.406910192S6O0
15:00 17.806310182SE6ONO0
16:00 17.906910182SSE5ENE15
17:00 16.407710191NE6ENE0
18:00 15.908210192SSE6NE0
19:00 14.808510192E11SSO0
20:00 15.207910195E19E0
21:00 13.608510193ENE10ESE0
22:00 12.308810192SSE6OSO0
23:00 11.309210191ESE5ESE0
minuit 9.809310191ONO5OSO0

Graphique du 12-10-2019

 

Serveur OMMA